TimePST,TemperatureF,Dew PointF,Humidity,Sea Level PressureIn,VisibilityMPH,Wind Direction,Wind SpeedMPH,Gust SpeedMPH,PrecipitationIn,Events,Conditions,WindDirDegrees,DateUTC
12:03 AM,32.0,32.0,100,29.92,10.0,West,2.3,-,N/A,,Scattered Clouds,260,2013-01-26 08:03:00
12:58 AM,30.4,30.2,99,29.93,3.0,West,2.3,-,N/A,,Clear,260,2013-01-26 08:58:00
1:58 AM,32.4,32.2,99,29.92,10.0,West,3.5,-,N/A,,Clear,260,2013-01-26 09:58:00
2:58 AM,34.2,34.0,99,29.92,10.0,West,2.3,-,N/A,,Partly Cloudy,260,2013-01-26 10:58:00
3:00 AM,33.8,33.8,100,29.90,10.0,West,3.5,-,N/A,Rain,Light Rain,260,2013-01-26 11:00:00
3:10 AM,33.8,33.8,100,29.90,10.0,West,3.5,-,N/A,Rain,Light Rain,260,2013-01-26 11:10:00
3:45 AM,35.6,35.6,100,29.88,10.0,West,1.2,-,N/A,Rain,Light Rain,270,2013-01-26 11:45:00
3:58 AM,35.4,35.2,99,29.90,10.0,West,2.3,-,0.02,Rain,Light Rain,260,2013-01-26 11:58:00
4:35 AM,37.4,37.4,100,29.88,10.0,West,4.6,-,N/A,,Mostly Cloudy,260,2013-01-26 12:35:00
4:58 AM,39.0,38.7,99,29.90,10.0,West,4.6,-,0.00,,Scattered Clouds,260,2013-01-26 12:58:00
5:58 AM,37.8,37.0,97,29.90,10.0,West,2.3,-,N/A,,Mostly Cloudy,260,2013-01-26 13:58:00
6:53 AM,39.2,39.2,100,29.88,10.0,Calm,Calm,-,N/A,,Overcast,0,2013-01-26 14:53:00
6:58 AM,39.2,38.5,97,29.90,10.0,Calm,Calm,-,N/A,,Overcast,0,2013-01-26 14:58:00
7:13 AM,39.2,39.2,100,29.89,10.0,WNW,1.2,-,N/A,,Overcast,290,2013-01-26 15:13:00
7:23 AM,39.2,39.2,100,29.89,10.0,West,2.3,-,N/A,,Overcast,270,2013-01-26 15:23:00
7:58 AM,41.2,38.5,90,29.92,10.0,West,1.2,-,N/A,,Overcast,280,2013-01-26 15:58:00
8:58 AM,42.1,38.5,87,29.94,10.0,West,2.3,-,N/A,,Mostly Cloudy,260,2013-01-26 16:58:00
9:08 AM,42.8,39.2,87,29.92,10.0,NNW,1.2,-,N/A,,Overcast,340,2013-01-26 17:08:00
9:18 AM,42.8,39.2,87,29.93,10.0,Calm,Calm,-,N/A,,Mostly Cloudy,0,2013-01-26 17:18:00
9:23 AM,42.8,39.2,87,29.93,10.0,North,1.2,-,N/A,,Mostly Cloudy,350,2013-01-26 17:23:00
9:58 AM,43.2,38.8,85,29.96,10.0,NNW,1.2,-,N/A,,Mostly Cloudy,330,2013-01-26 17:58:00
10:03 AM,42.8,39.2,87,29.94,10.0,NW,1.2,-,N/A,,Scattered Clouds,320,2013-01-26 18:03:00
10:43 AM,44.6,39.2,81,29.94,10.0,South,10.4,-,N/A,,Scattered Clouds,170,2013-01-26 18:43:00
10:58 AM,45.0,38.5,78,29.96,10.0,South,10.4,-,N/A,,Mostly Cloudy,170,2013-01-26 18:58:00
11:38 AM,46.4,37.4,71,29.94,10.0,SSE,12.7,19.6,N/A,,Overcast,160,2013-01-26 19:38:00
11:43 AM,46.4,39.2,76,29.94,10.0,SSE,11.5,19.6,N/A,,Overcast,160,2013-01-26 19:43:00
11:48 AM,46.4,39.2,76,29.94,10.0,SSE,12.7,-,N/A,,Mostly Cloudy,160,2013-01-26 19:48:00
11:58 AM,46.2,38.5,74,29.95,10.0,SSE,16.1,-,N/A,,Mostly Cloudy,160,2013-01-26 19:58:00
12:41 PM,44.6,37.4,76,29.94,10.0,South,8.1,17.3,N/A,Rain,Light Rain,180,2013-01-26 20:41:00
12:51 PM,44.6,39.2,81,29.93,10.0,South,11.5,-,N/A,,Overcast,180,2013-01-26 20:51:00
12:58 PM,45.5,39.2,79,29.95,10.0,South,15.0,-,0.00,,Mostly Cloudy,170,2013-01-26 20:58:00
1:58 PM,45.0,37.2,74,29.95,10.0,South,11.5,-,N/A,,Overcast,190,2013-01-26 21:58:00
2:28 PM,44.6,37.4,76,29.93,10.0,South,9.2,-,N/A,,Mostly Cloudy,190,2013-01-26 22:28:00
2:58 PM,45.0,37.8,76,29.96,10.0,South,8.1,-,N/A,,Overcast,190,2013-01-26 22:58:00
3:03 PM,44.6,37.4,76,29.94,10.0,South,9.2,-,N/A,,Mostly Cloudy,190,2013-01-26 23:03:00
3:08 PM,44.6,37.4,76,29.94,10.0,South,8.1,-,N/A,,Scattered Clouds,190,2013-01-26 23:08:00
3:13 PM,44.6,37.4,76,29.94,10.0,South,9.2,-,N/A,,Mostly Cloudy,190,2013-01-26 23:13:00
3:18 PM,44.6,37.4,76,29.94,10.0,South,10.4,-,N/A,,Scattered Clouds,190,2013-01-26 23:18:00
3:58 PM,43.3,37.6,80,29.97,10.0,South,6.9,-,N/A,,Partly Cloudy,190,2013-01-26 23:58:00
4:58 PM,40.5,37.9,91,29.98,10.0,South,5.8,-,N/A,,Partly Cloudy,190,2013-01-27 00:58:00
5:58 PM,37.8,37.0,97,29.99,10.0,South,4.6,-,N/A,,Overcast,190,2013-01-27 01:58:00
6:58 PM,38.8,38.1,97,30.00,10.0,South,6.9,-,N/A,,Mostly Cloudy,190,2013-01-27 02:58:00
7:58 PM,37.9,37.0,97,30.02,10.0,South,4.6,-,N/A,,Mostly Cloudy,190,2013-01-27 03:58:00
8:33 PM,37.4,37.4,100,30.00,10.0,South,4.6,-,N/A,,Overcast,190,2013-01-27 04:33:00
8:38 PM,37.4,37.4,100,30.00,10.0,South,4.6,-,N/A,,Mostly Cloudy,190,2013-01-27 04:38:00
8:58 PM,37.4,37.0,99,30.02,10.0,South,4.6,-,N/A,,Mostly Cloudy,190,2013-01-27 04:58:00
9:18 PM,37.4,37.4,100,30.01,10.0,South,3.5,-,N/A,,Mostly Cloudy,190,2013-01-27 05:18:00
9:58 PM,38.8,38.1,97,30.04,10.0,South,6.9,-,N/A,,Overcast,190,2013-01-27 05:58:00
10:58 PM,39.7,38.3,95,30.05,10.0,South,5.8,-,N/A,,Overcast,190,2013-01-27 06:58:00
11:58 PM,38.7,37.8,97,30.06,10.0,South,3.5,-,N/A,,Overcast,190,2013-01-27 07:58:00